Location: ?????????????
(48.5468°N, 37.7311°E)
Time: 18:08:44
(UTC+00:00)

Daily predictions for brighter satellites

Satellite Brightness Start Highest point End
(mag) Time Altitude Azimuth Time Altitude Azimuth Time Altitude Azimuth
Cosmos 1656 Rocket 4.1 18:07:48 10° NW 18:13:11 60° WSW 18:18:35 10° S
Cosmos 1553 Rocket 4.2 18:06:53 10° S 18:13:15 84° W 18:19:43 10° N
USA 234 3.9 18:07:19 10° E 18:13:41 55° NNE 18:20:03 10° NW
Lacrosse 5 rocket 2.5 18:11:42 10° NW 18:15:14 36° NNE 18:18:56 10° E
Cosmos 1238 Rocket 4.2 18:11:07 10° NNW 18:16:08 60° W 18:21:58 10° S
CZ-4B R/B 1.3 18:19:42 10° N 18:22:37 71° WNW 18:25:29 10° SSW
Meteor 2-10 Rocket 3.5 18:21:02 10° NNW 18:26:10 88° E 18:31:10 10° S
S3M 4.0 18:20:40 10° S 18:26:52 80° E 18:33:04 10° N
Cosmos 407 Rocket 3.5 18:23:53 10° NNW 18:29:07 76° ENE 18:34:16 10° SSE
GENESIS II 4.3 18:25:58 10° NW 18:30:02 83° NE 18:34:04 10° SE
BREEZE-M DEB (TANK) 4.1 18:29:11 10° WSW 18:30:29 14° SSW 18:32:02 10° S
Okean 1 Rocket 3.9 18:26:18 10° NNW 18:30:41 52° W 18:35:01 10° S
APEX 4.1 18:26:36 10° SSW 18:32:35 90° W 18:37:34 10° NNE
SL-16 R/B 4.5 18:27:52 10° WSW 18:32:50 30° NW 18:37:50 10° NNE
MetOp-B 4.5 18:30:05 10° S 18:35:25 68° WSW 18:40:47 10° NNW
SL-14 R/B 4.2 18:31:58 10° SSW 18:35:43 50° WNW 18:39:33 10° N
Cosmos 1455 Rocket 3.1 18:31:39 10° N 18:36:01 66° E 18:40:19 10° SSE
Meteor 2-5 Rocket 3.9 18:30:46 10° S 18:36:04 51° E 18:41:26 10° NNE
USA 245 3.8 18:31:29 10° SSE 18:36:42 87° WSW 18:40:55 10° NNW
Cosmos 2056 Rocket 4.2 18:33:11 10° SSE 18:38:04 37° ESE 18:43:01 10° NE
SPOT 5 2.8 18:33:47 10° SSE 18:38:15 65° ENE 18:42:36 10° N
Cosmos 1607 4.4 18:41:38 10° S 18:47:18 38° ESE 18:52:56 10° NE
Cosmos 1271 Rocket 3.6 18:44:15 10° N 18:48:00 37° ENE 18:51:09 13° SE
Cosmos 1025 Rocket 3.1 18:44:11 10° S 18:48:21 60° E 18:52:36 10° NNE
USA 32 4.3 18:44:05 10° SSE 18:49:09 52° E 18:54:14 10° NNE
ERS-1 Rocket 3.0 18:44:38 10° SSE 18:49:36 75° ENE 18:54:39 10° N
Cosmos 1300 3.9 18:46:07 10° NNW 18:49:40 39° W 18:53:13 10° SSW
Cosmos 1140 Rocket 3.8 18:47:42 10° NNW 18:52:54 67° WSW 18:57:56 10° S
Cosmos 1943 3.9 18:50:37 10° SW 18:56:12 58° WNW 19:01:48 10° NNE
Cosmos 1603 4.3 18:54:26 10° SW 19:00:05 62° WNW 19:05:47 10° NNE
CZ-2C R/B 3.8 18:58:17 10° NNE 19:02:54 62° ESE 19:07:25 10° S
Lacrosse 5 2.5 18:59:05 10° NW 19:04:08 56° NNE 19:09:10 10° ESE
Cosmos 1975 Rocket 3.4 19:04:23 10° SSW 19:08:50 71° W 19:13:17 10° N
Cosmos 1954 Rocket 4.1 19:04:29 10° NNW 19:09:49 76° ENE 19:14:01 16° SSE
Helios 1A Rocket 3.3 19:07:41 12° S 19:11:25 58° WSW 19:15:28 10° NNW
Resurs 01 Rocket 4.2 19:13:30 10° SW 19:16:14 16° W 19:18:58 10° NW
USA 267 3.2 19:15:04 10° ENE 19:21:38 74° SE 19:28:10 10° SW
ATLAS 5 CENTAUR R/B 4.0 19:09:56 10° NW 19:22:04 42° WSW 19:25:35 14° S
Lacrosse 4 Rocket 3.8 19:18:40 10° WSW 19:22:10 26° NW 19:25:40 10° NNE
Cosmos 2228 3.8 19:21:04 10° N 19:25:01 37° ENE 19:27:35 19° SE
Cosmos 1544 Rocket 3.7 19:22:52 10° NNW 19:27:12 72° W 19:30:31 17° S
Terra 2.1 19:24:00 14° S 19:27:58 63° WSW 19:32:43 10° NNW
Tiangong 2.4 19:25:29 10° SW 19:27:57 22° S 19:27:57 22° S
Cosmos 2315 Rocket 4.5 19:22:36 10° SSW 19:28:55 64° WNW 19:35:12 10° N
Cosmos 1980 Rocket 4.2 19:25:13 10° N 19:29:26 21° NE 19:33:39 10° E
NOSS 2-1 (C) 4.0 19:25:56 10° NW 19:30:18 76° NE 19:34:59 17° SE
Cosmos 1703 3.9 19:28:22 22° SSE 19:30:24 39° E 19:34:01 10° NNE
Meteor 1-24 Rocket 3.9 19:25:09 10° SSW 19:30:25 69° WNW 19:35:49 10° N
SL-8 R/B 3.7 19:26:45 10° W 19:31:35 88° S 19:36:27 10° E
Cosmos 1697 Rocket 3.9 19:29:20 10° NNW 19:34:27 34° NE 19:39:16 11° ESE
SAR-Lupe-1 4.3 19:31:18 10° NNE 19:34:47 49° E 19:36:38 24° SSE
FALCON 9 DEB 3.2 19:31:47 10° WSW 19:35:02 71° NNW 19:38:19 10° ENE
Cosmos 1455 2.6 19:33:36 10° NNW 19:37:19 57° W 19:39:56 18° S
Cosmos 1371 Rocket 4.3 19:33:14 10° SSW 19:38:26 70° WNW 19:43:44 10° NNE
Cosmos 1452 Rocket 4.1 19:36:47 20° SSE 19:39:59 40° ESE 19:44:53 10° NE
NOSS 2-1 (D) 4.0 19:36:15 10° NW 19:40:41 88° NE 19:45:05 19° SE
RESURS DK-1 3.6 19:40:44 10° NNW 19:44:32 34° NE 19:47:23 15° ESE
ARIANE 5 R/B 3.3 19:46:05 17° S 19:49:19 49° W 19:53:40 10° NNW
ASTEX 1 3.9 19:44:58 10° NNE 19:49:48 47° E 19:52:36 23° SSE
Cosmos 2074 Rocket 4.1 19:46:25 10° N 19:52:45 82° W 19:57:20 19° S
ATLAS 2AS CENTAUR R/B 2.8 19:45:43 10° NW 19:52:50 72° SW 19:57:27 21° SSE
Lacrosse 5 rocket 1.4 19:50:35 10° WNW 19:54:24 56° SW 19:56:17 28° SSE
Cosmos 2084 3.0 19:50:40 10° SW 19:54:30 74° SE 19:58:22 10° NE
USA 234 3.3 19:51:32 18° SE 19:56:36 71° SW 20:03:10 10° WNW
Cosmos 2344 4.5 19:49:44 10° NW 19:58:15 65° NE 20:09:58 10° SE
Cosmos 2058 Rocket 4.5 19:56:06 10° NNE 19:59:53 27° ENE 20:02:12 18° ESE
Cosmos 1656 3.6 19:56:37 10° NNW 20:02:06 89° WSW 20:05:29 24° SSE
Cosmos 1833 Rocket 3.3 20:02:59 24° SSE 20:05:40 38° ESE 20:10:49 10° NE
GP-B 3.6 20:01:53 10° NNE 20:06:11 47° E 20:08:14 27° SE
Cosmos 1892 Rocket 4.4 20:08:05 26° SE 20:09:52 36° E 20:13:55 10° NNE
Cosmos 2154 Rocket 4.0 20:05:43 10° N 20:11:59 82° W 20:16:04 23° S
Nadezhda 1 Rocket 3.9 20:10:03 21° S 20:14:22 85° E 20:20:28 10° N
Cosmos 2082 Rocket 3.6 20:17:54 19° SE 20:19:44 22° E 20:24:00 10° NE
Cosmos 1741 Rocket 4.1 20:18:32 10° NNW 20:23:51 76° WSW 20:26:43 28° S
Cosmos 968 Rocket 3.8 20:40:24 10° NNW 20:45:32 58° ENE 20:48:32 24° SE
COSMOS 2406 3.6 20:42:59 29° SSE 20:45:33 47° ESE 20:51:04 10° NE
Lacrosse 5 2.4 20:42:15 10° WNW 20:47:03 42° SW 20:48:46 31° S
Cosmos 1606 Rocket 4.1 20:44:19 10° NNW 20:48:28 47° W 20:50:19 28° SSW
H-2A R/B 3.5 20:45:08 10° NNE 20:49:20 68° ESE 20:50:52 37° S
Meteor 1-11 4.2 20:48:17 29° S 20:51:14 73° E 20:56:50 10° NNE
SL-8 Rocket 4.0 20:45:04 10° N 20:51:23 81° E 20:54:53 28° SSE
Cosmos 2218 Rocket 4.1 20:48:24 10° N 20:54:50 74° E 20:58:31 27° SSE
Cosmos 2369 3.9 20:50:06 10° NNW 20:55:51 72° ENE 20:59:20 25° SE
Cosmos 2341 Rocket 4.0 20:50:15 10° N 20:56:38 80° W 21:00:11 28° S
Cosmos 1633 4.4 20:57:00 18° ESE 20:57:36 18° E 21:00:04 10° NE
SL-16 R/B 4.1 20:56:19 10° NNW 21:01:03 26° NE 21:05:45 10° E
SJ 16-02 3.9 20:59:35 10° NNE 21:02:09 15° NE 21:04:42 10° E
USA 267 4.0 20:58:11 10° NE 21:04:31 54° NNW 21:10:50 10° W
Cosmos 2366 rocket 4.0 20:58:15 10° N 21:04:35 84° E 21:08:07 29° SSE
Cosmos 1408 2.6 21:09:35 45° SW 21:10:27 66° W 21:13:54 10° N
ALOS 2 2.8 21:09:14 36° SSW 21:10:51 60° WSW 21:15:12 10° NNW
Cosmos 1867 4.2 21:05:28 10° NNW 21:10:51 55° NE 21:15:31 14° ESE
Cosmos 967 Rocket 4.5 21:06:58 24° SSW 21:11:04 74° ESE 21:17:33 10° NE
Cosmos 1900 4.4 21:06:57 10° NW 21:12:09 78° SW 21:14:34 32° SSE
Cosmos 1825 2.3 21:12:17 44° SSE 21:13:09 58° E 21:16:51 10° NNE
SL-8 R/B 3.6 21:09:19 10° W 21:14:08 74° SSW 21:18:57 10° ESE
Cosmos 1980 Rocket 2.2 21:08:34 10° NNW 21:14:20 86° ENE 21:17:30 28° SSE
Cosmos 1697 Rocket 3.1 21:13:13 10° NW 21:18:36 48° WSW 21:20:59 30° SSW
RESURS DK-1 3.5 21:18:51 10° NW 21:22:27 29° WSW 21:23:13 27° SW
ADEOS Rocket 3.5 21:18:38 27° S 21:22:39 67° WSW 21:30:12 10° NNW
Cosmos 1812 Rocket 4.0 21:20:25 10° N 21:24:50 55° ENE 21:26:45 31° SE
In-Cosmos 22 Rocket 4.2 21:26:35 30° SSW 21:29:31 83° W 21:35:06 10° N
Cosmos 1892 3.4 21:31:44 31° SW 21:33:01 44° WNW 21:36:38 10° N
Cosmos 2181 Rocket 4.1 21:30:29 27° SSW 21:34:00 69° W 21:40:12 10° N
ERS-2 2.1 21:30:30 10° N 21:34:05 73° WNW 21:35:04 45° SW
Cosmos 2084 Rocket 3.2 21:31:08 10° NW 21:35:03 85° NE 21:36:46 33° SE
Cosmos 2058 Rocket 4.2 21:33:57 10° NNW 21:37:54 33° W 21:39:28 25° SW
USA 276 1.9 21:38:55 43° W 21:39:44 77° NNW 21:42:39 10° ENE
Cosmos 1602 Rocket 3.5 21:38:17 39° S 21:39:47 71° E 21:44:06 10° NNE
USA 234 4.5 21:38:52 21° SW 21:40:23 22° SW 21:45:20 10° WNW
Cosmos 2278 3.7 21:36:26 10° NNW 21:42:12 85° ENE 21:45:38 25° SSE
ATLAS 2AS CENTAUR R/B 4.4 21:38:40 10° WNW 21:42:26 15° WSW 21:44:51 13° SW
Cosmos 2322 Rocket 3.6 21:38:10 10° NNW 21:43:21 35° NE 21:48:32 10° ESE
Cosmos 1302 Rocket 4.2 21:40:59 26° SW 21:43:54 67° WNW 21:49:05 10° NNE
Cosmos 1833 Rocket 3.7 21:44:37 12° WSW 21:49:34 41° NW 21:54:53 10° NNE
SL-19 R/B 4.4 21:50:10 38° SE 21:51:16 60° ENE 21:54:59 10° N
CZ-2D R/B 4.2 21:51:01 10° NE 21:54:14 16° E 21:57:27 10° SE
Geosat 3.9 21:55:47 26° SSE 21:58:43 89° WSW 22:03:47 10° NNW
Cosmos 1821 Rocket 4.0 21:56:35 10° NNW 22:02:53 74° W 22:06:18 28° S
Cosmos 2082 Rocket 2.4 21:59:43 24° SW 22:03:17 68° WNW 22:09:00 10° NNE
Cosmos 1626 Rocket 4.3 22:04:58 27° SW 22:06:49 42° WNW 22:10:57 10° N
Cosmos 1238 4.0 22:09:26 63° S 22:09:52 90° WNW 22:12:54 10° N
ATLAS 5 CENTAUR R/B 1.9 22:09:38 34° SE 22:10:18 37° ESE 22:14:05 10° NE
Nadezhda 3 Rocket 4.0 22:12:40 28° SSW 22:16:07 81° W 22:22:19 10° N
Resurs 1-4 Rocket 3.6 22:11:57 10° NE 22:16:23 26° E 22:19:46 15° SE
Thor Agena Rocket 4.4 22:12:29 10° NNE 22:17:26 41° E 22:20:14 23° SSE
Cosmos 1825 Rocket 3.5 22:16:49 35° S 22:18:33 78° E 22:22:53 10° NNE
Cosmos-2242 3.3 22:15:06 10° NNW 22:19:14 52° W 22:20:41 35° SSW
PSLV R/B 4.4 22:14:39 10° N 22:19:14 48° WNW 22:21:43 25° SW
Cosmos 2360 Rocket 3.2 22:20:25 10° NNW 22:25:53 46° NE 22:31:19 10° SE
COSMOS 2406 4.5 22:25:01 11° WSW 22:30:02 36° NW 22:35:20 10° NNE
Cosmos 1633 3.7 22:30:47 25° WSW 22:31:52 31° WNW 22:35:02 10° N
Cosmos 1932 4.5 22:34:04 22° SW 22:38:16 83° NW 22:44:39 10° NE
SJ 16-02 1.3 22:36:53 10° NNW 22:41:20 84° WSW 22:43:51 25° SSE
Cosmos 1340 Rocket 2.7 22:41:29 34° S 22:43:06 77° E 22:47:03 10° NNE
SL-16 R/B 3.2 22:39:04 10° SE 22:45:07 54° ENE 22:51:13 10° N
SL-16 R/B 2.2 22:40:03 10° NNW 22:45:42 70° WSW 22:49:42 20° SSE
Cosmos 972 Rocket 4.2 22:42:23 10° NNW 22:47:21 71° ENE 22:52:07 13° SSE
FALCON 9 DEB 3.7 22:45:05 10° WNW 22:48:19 54° NNE 22:51:33 10° E
Cosmos 1606 3.8 22:46:59 10° NNW 22:50:24 31° W 22:51:30 26° WSW
Cosmos 1867 4.4 22:49:27 10° NW 22:54:13 31° WSW 22:56:07 25° SSW
Meteor 2-3 Rocket 4.4 22:50:30 18° SSE 22:54:31 49° E 22:59:54 10° NNE
MOS 1 Rocket 4.1 22:50:06 11° SE 22:54:39 54° ENE 22:59:42 10° N
SL-8 R/B 4.4 22:52:03 10° W 22:56:15 30° SW 22:57:36 26° S
Cosmos 1980 Rocket 3.9 22:54:03 10° WNW 22:57:33 17° W 22:59:13 15° WSW
Cosmos 1354 Rocket 4.4 22:56:14 10° NNW 23:01:20 48° WSW 23:04:16 24° SSW
ADEOS II 3.2 23:00:52 10° NNE 23:05:43 36° E 23:10:01 13° SSE
Cosmos 1782 3.5 23:02:13 10° N 23:06:08 50° ENE 23:09:27 13° SSE
Cosmos 2219 Rocket 3.4 23:03:32 10° NNW 23:08:57 44° NE 23:14:21 10° SE
Cosmos 2058 4.0 23:08:17 21° WSW 23:10:23 34° WNW 23:14:15 10° N
USA 276 2.2 23:12:13 10° WNW 23:15:08 68° N 23:18:01 10° E
Cosmos 2221 2.8 23:11:22 10° NNW 23:15:36 54° W 23:18:00 24° SSW
Cosmos 2333 Rocket 2.7 23:11:32 10° NNW 23:17:17 65° ENE 23:23:01 10° SE
Meteor 1-28 Rocket 4.1 23:17:10 10° SE 23:20:41 46° ENE 23:24:14 10° N
CZ-4 R/B 3.9 23:16:24 10° NNE 23:21:13 80° ESE 23:24:39 20° S
Helios 1A 4.1 23:21:43 10° SE 23:25:43 43° ENE 23:29:43 10° N
Cosmos 1933 3.2 23:23:22 10° NNW 23:27:23 74° W 23:30:10 19° S
Cosmos 2322 Rocket 2.5 23:22:09 10° NW 23:27:33 47° WSW 23:31:55 16° S
Cosmos 1727 Rocket 4.1 23:23:41 16° S 23:28:51 83° E 23:35:13 10° N
Cosmos 990 Rocket 4.4 23:26:27 10° NNW 23:31:36 65° ENE 23:36:42 10° SSE
AQUA 4.0 23:28:59 10° NNE 23:33:46 72° ESE 23:37:31 16° S
CZ-2D R/B 2.1 23:29:40 10° NNE 23:34:54 78° WNW 23:38:50 18° SSW
UNK 3.7 23:33:30 13° S 23:37:42 76° WSW 23:42:24 10° NNW
Cosmos 2151 2.9 23:38:32 19° SSW 23:41:36 82° W 23:45:56 10° N
SL-4 R/B 3.4 23:42:05 16° S 23:43:55 22° SE 23:47:01 10° E
Cosmos 1898 Rocket 4.1 23:40:06 10° NNW 23:45:14 58° ENE 23:50:19 10° SE
NOSS 8 (A) 4.3 23:45:44 20° SSW 23:47:55 70° SE 23:50:53 10° NE
Cosmos 2082 Rocket 4.4 23:44:44 10° WNW 23:48:29 18° NW 23:52:14 10° N
Cosmos 2100 Rocket 4.1 23:42:26 10° N 23:48:52 89° W 23:55:15 10° S
IDEFIX/ARIANE 42P 2.7 23:43:59 10° NNE 23:49:14 72° ESE 23:54:02 12° S
Meteor 1-26 Rocket 4.4 23:44:39 10° NNW 23:50:17 63° W 23:56:03 10° S
Cosmos 2333 4.2 23:45:39 10° NNW 23:51:26 73° WSW 23:57:11 10° SSE
ATLAS 5 CENTAUR R/B 2.8 23:51:21 10° W 23:54:50 32° NW 23:58:49 10° NNE
Cosmos 1184 Rocket 4.2 23:52:22 10° N 23:55:13 35° ENE 23:58:02 10° SE
